Regional Weather Roundup
Issued by NWS Goodland, KS

Home | Current Version | Previous Version | Graphics & Text | Print | Product List | Glossary On
Versions: 1 2 3 4 5 6 7 8 9 10 11 12 13 14 15 16 17 18 19 20 21 22 23 24 25 26 27 28 29 30 31 32 33 34 35 36 37 38 39 40 41 42 43 44 45 46 47 48 49 50
000
ASUS43 KGLD 220208
RWRGLD

GOODLAND FORECAST AREA HOURLY WEATHER ROUNDUP
NATIONAL WEATHER SERVICE GOODLAND KS
800 PM MDT MON AUG 21 2017

...OFFICIAL OBSERVATIONS...

CITY           SKY/WX    TMP DP  RH WIND       PRES   REMARKS
GOODLAND KS    CLEAR     76  68  76 N7        30.05R
HILL CITY KS   CLEAR     79  66  64 N7        29.93R
IMPERIAL NEB   CLEAR     75  65  70 NE14      30.07R
MCCOOK NEB     PTCLDY    79  69  71 N15       29.99R
AKRON CO       CLEAR     69  54  58 NE8       30.17R
BURLINGTON CO  CLEAR     76  66  71 N12       30.11R
LIMON CO       CLOUDY    69  54  58 NE6       30.22R
$$

...UNOFFICIAL OBSERVATIONS...

CITY           SKY/WX    TMP DP  RH WIND       PRES   REMARKS
LENORA KS        N/A     82  32  16 CALM        N/A
NORTON KS      CLEAR     75  63  64 N6        29.95R
TRENTON NEB      N/A     78  32  18 N10         N/A
KIT CARSON CO    N/A     73  62  68 CALM        N/A
YUMA CO        FAIR      70  52  52 N7        30.13R
$$




USA.gov is the U.S. government's official web portal to all federal, state and local government web resources and services.